Home   Weather   India   Gaya   Past weeks
Flag for India

Past Weather in Gaya, Bihar, India — Yesterday and Last 2 Weeks

Currently: 50 °F. Fog. (Weather station: Patna Airport, India). See more current weather

Past Weather in Gaya — Graph

°F

Gaya Temperature Yesterday

Maximum temperature yesterday: 61 °F (at 1:30 pm)
Minimum temperature yesterday: 46 °F (at 12:30 am)
Average temperature yesterday: 53 °F

High & Low Weather Summary for the Past Weeks

 TemperatureHumidityPressure
High68 °F (Jan 22, 2:30 pm)100% (Jan 13, 11:30 pm)30.18 "Hg (Jan 13, 11:30 pm)
Low43 °F (Jan 20, 4:00 am)40% (Jan 26, 12:00 pm)29.77 "Hg (Jan 23, 1:30 am)
Average55 °F81%29.96 "Hg
* Reported Jan 13 9:30 pm — Jan 28 9:30 pm, Gaya. Weather by CustomWeather, © 2022

Note: Actual official high and low records may vary slightly from our data, if they occured in-between our weather recording intervals... More about our weather records

Gaya Weather History for the Previous 24 Hours

Scroll right to see more
 ConditionsComfort  
Time TempWeatherWind HumidityBarometerVisibility
9:30 pm
Fri, Jan 28
48 °FFog.No wind94%30.04 "Hg1 mi
9:00 pm50 °FFog.No wind94%30.04 "Hg1 mi
8:30 pm52 °FFog.No wind88%30.04 "Hg1 mi
8:00 pm52 °FFog.3 mph88%30.04 "Hg1 mi
7:30 pm54 °FFog.5 mph88%30.01 "Hg1 mi
7:00 pm55 °FFog.3 mph77%30.01 "Hg1 mi
6:30 pm55 °FFog.5 mph77%29.98 "Hg1 mi
6:00 pm55 °FFog.5 mph77%29.98 "Hg1 mi
5:30 pm57 °FScattered clouds.3 mph72%29.98 "Hg1 mi
5:00 pm59 °FScattered clouds.7 mph68%29.98 "Hg1 mi
4:30 pm61 °FScattered clouds.6 mph63%29.98 "Hg2 mi
4:00 pm61 °FScattered clouds.5 mph59%29.98 "Hg2 mi
3:30 pm61 °FScattered clouds.6 mph59%29.98 "Hg2 mi
3:00 pm63 °FScattered clouds.7 mph56%29.98 "Hg1 mi
2:30 pm61 °FScattered clouds.7 mph59%29.98 "Hg1 mi
2:00 pm61 °FScattered clouds.9 mph59%29.98 "Hg1 mi
1:30 pm61 °FScattered clouds.6 mph59%29.98 "Hg1 mi
1:00 pm59 °FScattered clouds.8 mph63%30.01 "Hg1 mi
12:30 pm59 °FScattered clouds.6 mph68%30.01 "Hg1 mi
12:00 pm59 °FScattered clouds.6 mph63%30.04 "Hg1 mi
11:30 am57 °FBroken clouds.7 mph67%30.04 "Hg1 mi
11:00 am57 °FBroken clouds.9 mph67%30.07 "Hg1 mi
10:30 am55 °FBroken clouds.7 mph72%30.07 "Hg1 mi
10:00 am55 °FFog.6 mph72%30.07 "Hg1 mi
9:30 am55 °FFog.5 mph72%30.07 "Hg1 mi
9:00 am54 °FFog.6 mph77%30.04 "Hg1 mi
8:30 am52 °FFog.6 mph88%30.04 "Hg1 mi
8:00 am50 °FFog.6 mph94%30.01 "Hg1 mi
7:30 am50 °FFog.6 mph94%30.01 "Hg1 mi
7:00 am48 °FFog.3 mph94%29.98 "Hg1 mi
6:30 am50 °FFog.3 mph94%29.98 "Hg1 mi
6:00 am50 °FFog.5 mph88%29.95 "Hg1 mi
5:00 am50 °FFog.3 mph88%29.95 "Hg1 mi
4:30 am50 °FFog.3 mph88%29.95 "Hg1 mi
4:00 am50 °FFog.5 mph88%29.95 "Hg1 mi
3:30 am50 °FFog.2 mph94%29.95 "Hg1 mi
3:00 am50 °FFog.3 mph94%29.95 "Hg1 mi
2:30 am50 °FFog.2 mph88%29.95 "Hg1 mi
2:00 am50 °FFog.No wind88%29.98 "Hg1 mi
1:30 am50 °FFog.5 mph88%29.98 "Hg1 mi
1:00 am52 °FFog.5 mph88%29.98 "Hg1 mi
12:00 am54 °FFog.5 mph77%29.98 "Hg1 mi
11:00 pm
Thu, Jan 27
54 °FPartly cloudy.6 mph67%29.98 "Hg1 mi
Weather by CustomWeather, © 2022

See weather overview